Location: Dehesa de la Cepeda
(40.6574°N, 4.3013°W)
Time: 19:59:11
(UTC+00:00)

Cosmos 2154 Rocket - Pass Details

Date: 05 July 2020
Orbit: 967 x 996 km, 82.9° (Epoch: 05 August)

Event Time Altitude Azimuth Distance (km) Brightness Sun altitude
Exits shadow 23:07:51 45° 203° (SSW) 1,286 4.3 -24.4°
Maximum altitude 23:09:50 76° 278° (W) 999 4.0 -24.5°
Drops below altitude 10° 23:16:04 10° 4° (N) 2,720 7.2 -24.8°
Sets 23:18:36 0° 6° (N) 3,674 8.1 -25.0°
